This is the latest recevied weather packets stored in our database for station/object KD0SBN. If no packets are shown the sender has not sent any weather packets the latest 10 day(s).
| Time | Temp. | Humidity | Pressure | Rain* | Wind** | Luminosity | Snow |
|---|---|---|---|---|---|---|---|
| 1778086634 | 2.78° C | 98% | 1018.9 hPa | 0 mm | - | - | - |
| 1778086331 | 2.22° C | 98% | 1018.9 hPa | 1.78 mm | - | - | - |
| 1778086028 | 2.78° C | 98% | 1018.7 hPa | 1.78 mm | - | - | - |
| 1778085725 | 2.78° C | 98% | 1018.5 hPa | 1.78 mm | - | - | - |
| 1778085421 | 2.78° C | 98% | 1018.5 hPa | 1.78 mm | - | - | - |
| 1778085116 | 2.78° C | 98% | 1018.7 hPa | 2.29 mm | - | - | - |
| 1778084813 | 2.78° C | 98% | 1018.5 hPa | 4.32 mm | - | - | - |
| 1778084510 | 2.78° C | 98% | 1018.3 hPa | 3.56 mm | - | - | - |
| 1778084208 | 2.22° C | 98% | 1018.2 hPa | 3.56 mm | - | - | - |
| 1778083904 | 2.78° C | 98% | 1018.3 hPa | 5.33 mm | - | - | - |
| 1778083602 | 2.78° C | 98% | 1018.5 hPa | 1.78 mm | - | - | - |
| 1778083299 | 2.22° C | 98% | 1018.5 hPa | 0 mm | - | - | - |
| 1778082998 | 2.22° C | 98% | 1018.3 hPa | 0 mm | - | - | - |
| 1778082695 | 2.22° C | 98% | 1018.2 hPa | 0 mm | - | - | - |
| 1778081556 | 1.67° C | 98% | 1017.9 hPa | 0 mm | - | - | - |
| 1778081253 | 1.67° C | 97% | 1017.7 hPa | 0 mm | - | - | - |
| 1778080950 | 1.67° C | 98% | 1017.6 hPa | 0 mm | - | - | - |
| 1778080650 | 1.67° C | 98% | 1017.9 hPa | 0 mm | - | - | - |
| 1778080345 | 1.67° C | 97% | 1017.7 hPa | 0 mm | - | - | - |
| 1778080042 | 1.67° C | 97% | 1017.8 hPa | 0 mm | - | - | - |
| 1778079739 | 1.67° C | 97% | 1017.9 hPa | 0 mm | - | - | - |
| 1778079436 | 1.67° C | 97% | 1017.9 hPa | 0 mm | - | - | - |
| 1778079133 | 1.67° C | 97% | 1018 hPa | 0 mm | - | - | - |
| 1778078830 | 1.67° C | 97% | 1018 hPa | 0 mm | - | - | - |
| 1778078527 | 1.11° C | 97% | 1017.8 hPa | 0 mm | - | - | - |
* Rain latest hour (hover to see other rain measurements)
** Current wind speed in m/s (hover to see current wind gust speed)